Location: Recife
(8.0585°S, 34.8848°W)
Time: 13:18:56
(UTC-03:00)

Hubble Space Telescope - Pass Details

Date: 29 September 2021
Orbit: 535 x 538 km, 28.5° (Epoch: 21 October)

Event Time Altitude Azimuth Distance (km) Brightness Sun altitude
Rises 19:01:12 0° 278° (W) 2,667 5.5 -27.1°
Reaches altitude 10° 19:03:41 10° 266° (W) 1,780 4.4 -27.7°
Enters shadow 19:06:44 28° 220° (SW) 1,032 2.6 -28.5°
